Location: Grand Rapids
(42.9630°N, 85.6680°W)
Time: 02:12:38
(UTC-04:00)

S-56A Canister/Altair - Pass Details

Date: 30 May 2024
Orbit: 637 x 2489 km, 38.9° (Epoch: 21 June)

Event Time Altitude Azimuth Distance (km) Brightness Sun altitude
Rises 02:24:53 0° 185° (S) 5,956 - -24.4°
Reaches altitude 10° 02:30:34 10° 169° (SSE) 5,092 - -24.2°
Exits shadow 02:34:57 16° 152° (SSE) 4,638 11.1 -24.0°
Maximum altitude 02:39:17 18° 132° (SE) 4,450 11.1 -23.8°
Drops below altitude 10° 02:47:43 10° 96° (E) 4,949 11.7 -23.3°
Sets 02:53:00 0° 80° (E) 5,737 12.4 -23.1°
